QTR1155 OEDF-OEJN

Flight info

Callsign QTR1155
Flight time 1h 45m
Altitude 34000
Route EMUSA2E/34L EMUSA Q212 GETOT J852 KSA G782 RGB M309 VEMEM
Aircraft B77W/H-SDE1E2E3FGHIJ2J3J4J5M1RWXY/LB1D1

Departure

Time 2026-04-16 21:21
Airport King Fahd International Airport (OEDF)

Arrival

Time 2026-04-16 23:07
Airport King Abdulaziz International Airport (OEJN)
Time Latitude Longitude Altitude Speed Heading
2026-04-16 20:40 26.46945 49.79451 87 ft 0 kts 63°
2026-04-16 21:01 26.46945 49.79450 87 ft 0 kts 63°
2026-04-16 21:06 26.46943 49.79446 87 ft 2 kts 64°
2026-04-16 21:06 26.46937 49.79431 86 ft 2 kts 69°
2026-04-16 21:06 26.46934 49.79415 85 ft 2 kts 93°
2026-04-16 21:07 26.46936 49.79399 85 ft 2 kts 110°
2026-04-16 21:07 26.46943 49.79384 84 ft 2 kts 128°
2026-04-16 21:07 26.46953 49.79372 84 ft 2 kts 146°
2026-04-16 21:07 26.46967 49.79364 83 ft 2 kts 156°
2026-04-16 21:08 26.46976 49.79360 83 ft 1 kts 155°
2026-04-16 21:08 26.46976 49.79359 83 ft 0 kts 155°
2026-04-16 21:11 26.46976 49.79360 83 ft 0 kts 155°
2026-04-16 21:11 26.46970 49.79364 83 ft 2 kts 153°
2026-04-16 21:11 26.46947 49.79376 84 ft 5 kts 153°
2026-04-16 21:12 26.46903 49.79401 85 ft 9 kts 155°
2026-04-16 21:12 26.46827 49.79428 85 ft 14 kts 166°
2026-04-16 21:12 26.46721 49.79460 82 ft 15 kts 164°
2026-04-16 21:12 26.46627 49.79486 78 ft 15 kts 174°
2026-04-16 21:13 26.46541 49.79493 73 ft 7 kts 176°
2026-04-16 21:13 26.46480 49.79469 70 ft 11 kts 232°
2026-04-16 21:13 26.46453 49.79399 70 ft 8 kts 251°
2026-04-16 21:13 26.46439 49.79344 72 ft 6 kts 255°
2026-04-16 21:14 26.46428 49.79300 73 ft 5 kts 255°
2026-04-16 21:14 26.46418 49.79262 74 ft 4 kts 245°
2026-04-16 21:14 26.46391 49.79240 74 ft 5 kts 194°
2026-04-16 21:14 26.46343 49.79242 74 ft 8 kts 168°
2026-04-16 21:15 26.46280 49.79260 73 ft 10 kts 165°
2026-04-16 21:15 26.46203 49.79283 73 ft 12 kts 165°
2026-04-16 21:15 26.46112 49.79311 72 ft 14 kts 165°
2026-04-16 21:15 26.46009 49.79343 71 ft 15 kts 164°
2026-04-16 21:16 26.45904 49.79376 69 ft 15 kts 164°
2026-04-16 21:16 26.45805 49.79407 68 ft 14 kts 164°
2026-04-16 21:16 26.45708 49.79436 67 ft 14 kts 165°
2026-04-16 21:16 26.45617 49.79464 66 ft 12 kts 165°
2026-04-16 21:17 26.45536 49.79489 65 ft 9 kts 166°
2026-04-16 21:17 26.45494 49.79489 65 ft 4 kts 201°
2026-04-16 21:17 26.45473 49.79468 65 ft 3 kts 238°
2026-04-16 21:17 26.45461 49.79440 65 ft 4 kts 245°
2026-04-16 21:18 26.45448 49.79401 65 ft 5 kts 254°
2026-04-16 21:18 26.45438 49.79358 66 ft 5 kts 254°
2026-04-16 21:18 26.45429 49.79324 67 ft 3 kts 254°
2026-04-16 21:18 26.45423 49.79298 68 ft 3 kts 254°
2026-04-16 21:19 26.45414 49.79265 68 ft 5 kts 254°
2026-04-16 21:19 26.45407 49.79227 69 ft 3 kts 277°
2026-04-16 21:19 26.45427 49.79199 69 ft 6 kts 324°
2026-04-16 21:19 26.45474 49.79181 68 ft 6 kts 350°
2026-04-16 21:20 26.45493 49.79177 68 ft 0 kts 347°
2026-04-16 21:20 26.45494 49.79177 68 ft 1 kts 347°
2026-04-16 21:20 26.45553 49.79160 68 ft 16 kts 344°
2026-04-16 21:20 26.45867 49.79064 68 ft 80 kts 344°
2026-04-16 21:21 26.46618 49.78831 72 ft 141 kts 344°
2026-04-16 21:21 26.47736 49.78487 116 ft 187 kts 343°
2026-04-16 21:21 26.48973 49.78095 799 ft 184 kts 343°
2026-04-16 21:21 26.50210 49.77708 1500 ft 185 kts 344°
2026-04-16 21:22 26.51460 49.77326 2046 ft 186 kts 346°
2026-04-16 21:22 26.52742 49.76949 2430 ft 198 kts 344°
2026-04-16 21:22 26.54123 49.76509 2718 ft 215 kts 343°
2026-04-16 21:22 26.55618 49.76041 3060 ft 231 kts 344°
2026-04-16 21:23 26.57232 49.75540 3442 ft 247 kts 343°
2026-04-16 21:23 26.58783 49.74677 3968 ft 254 kts 319°
2026-04-16 21:23 26.59853 49.73126 4587 ft 258 kts 294°
2026-04-16 21:23 26.60200 49.71184 5250 ft 262 kts 268°
2026-04-16 21:24 26.59728 49.69241 5877 ft 267 kts 243°
2026-04-16 21:24 26.58885 49.67414 6586 ft 264 kts 256°
2026-04-16 21:24 26.58731 49.65557 7125 ft 264 kts 279°
2026-04-16 21:24 26.59124 49.63558 7752 ft 266 kts 284°
2026-04-16 21:25 26.59560 49.61556 7947 ft 267 kts 282°
2026-04-16 21:25 26.59965 49.59523 8009 ft 274 kts 282°
2026-04-16 21:25 26.60358 49.57464 8675 ft 274 kts 282°
2026-04-16 21:25 26.60753 49.55374 9001 ft 276 kts 281°
2026-04-16 21:26 26.61053 49.53271 9665 ft 275 kts 270°
2026-04-16 21:26 26.60736 49.51168 10169 ft 279 kts 251°
2026-04-16 21:26 26.59786 49.49228 10512 ft 295 kts 239°
2026-04-16 21:26 26.58576 49.47322 10770 ft 312 kts 238°
2026-04-16 21:27 26.57288 49.45284 11033 ft 328 kts 239°
2026-04-16 21:27 26.55965 49.43153 11345 ft 343 kts 239°
2026-04-16 21:27 26.54586 49.40915 11684 ft 358 kts 239°
2026-04-16 21:27 26.53138 49.38563 12114 ft 371 kts 239°
2026-04-16 21:28 26.51683 49.36200 12779 ft 376 kts 239°
2026-04-16 21:28 26.50193 49.33785 13576 ft 379 kts 239°
2026-04-16 21:28 26.48699 49.31360 14331 ft 384 kts 239°
2026-04-16 21:28 26.47311 49.28826 15093 ft 387 kts 244°
2026-04-16 21:29 26.46000 49.26193 15793 ft 395 kts 244°
2026-04-16 21:29 26.44644 49.23486 16630 ft 399 kts 244°
2026-04-16 21:29 26.43302 49.20826 17468 ft 402 kts 244°
2026-04-16 21:29 26.41913 49.18083 18216 ft 407 kts 243°
2026-04-16 21:30 26.40518 49.15337 18872 ft 414 kts 243°
2026-04-16 21:30 26.39081 49.12514 19584 ft 419 kts 243°
2026-04-16 21:30 26.37642 49.09693 20339 ft 423 kts 243°
2026-04-16 21:30 26.36998 49.08432 20671 ft 425 kts 243°
2026-04-16 21:31 26.36807 49.08057 20767 ft 425 kts 243°
2026-04-16 21:32 26.35338 49.05183 21470 ft 430 kts 243°
2026-04-16 21:32 26.33834 49.02245 22114 ft 435 kts 243°
2026-04-16 21:32 26.32332 48.99312 22752 ft 440 kts 243°
2026-04-16 21:32 26.30828 48.96378 23413 ft 444 kts 243°
2026-04-16 21:33 26.29294 48.93388 24067 ft 448 kts 243°
2026-04-16 21:33 26.27739 48.90358 24755 ft 451 kts 242°
2026-04-16 21:33 26.26189 48.87342 25446 ft 453 kts 242°
2026-04-16 21:33 26.24617 48.84285 26134 ft 455 kts 242°
2026-04-16 21:34 26.23033 48.81205 26706 ft 460 kts 242°
2026-04-16 21:34 26.21969 48.79137 27070 ft 463 kts 242°
2026-04-16 21:34 26.19865 48.74963 27850 ft 467 kts 245°
2026-04-16 21:34 26.18645 48.71653 28426 ft 469 kts 253°
2026-04-16 21:35 26.17854 48.68124 28960 ft 472 kts 261°
2026-04-16 21:35 26.17365 48.64525 29609 ft 473 kts 263°
2026-04-16 21:35 26.16908 48.60914 30538 ft 468 kts 262°
2026-04-16 21:35 26.16465 48.57426 31617 ft 459 kts 262°
2026-04-16 21:36 26.16021 48.53940 32596 ft 451 kts 262°
2026-04-16 21:36 26.15581 48.50501 33451 ft 445 kts 262°
2026-04-16 21:36 26.15142 48.47077 33969 ft 445 kts 263°
2026-04-16 21:37 26.14263 48.40267 33997 ft 442 kts 262°
2026-04-16 21:37 26.13384 48.33490 34006 ft 443 kts 262°
2026-04-16 21:38 26.12492 48.26640 34012 ft 442 kts 262°
2026-04-16 21:38 26.11273 48.20005 34010 ft 442 kts 252°
2026-04-16 21:39 26.08524 48.13845 34011 ft 447 kts 238°
2026-04-16 21:39 26.04627 48.08394 34007 ft 452 kts 233°
2026-04-16 21:40 26.00636 48.03017 34011 ft 453 kts 234°
2026-04-16 21:40 25.96655 47.97660 34011 ft 450 kts 233°
2026-04-16 21:41 25.92648 47.92275 34019 ft 453 kts 233°
2026-04-16 21:41 25.88667 47.86933 34020 ft 450 kts 233°
2026-04-16 21:42 25.84662 47.81563 34027 ft 450 kts 233°
2026-04-16 21:42 25.80650 47.76192 34032 ft 450 kts 233°
2026-04-16 21:43 25.76678 47.70880 34025 ft 449 kts 233°
2026-04-16 21:43 25.72680 47.65540 34033 ft 450 kts 233°
2026-04-16 21:44 25.68701 47.60226 34042 ft 448 kts 233°
2026-04-16 21:44 25.64725 47.54909 34042 ft 451 kts 233°
2026-04-16 21:45 25.60701 47.49537 34045 ft 450 kts 233°
2026-04-16 21:45 25.56696 47.44213 34053 ft 450 kts 233°
2026-04-16 21:46 25.52670 47.38865 34045 ft 452 kts 233°
2026-04-16 21:46 25.48638 47.33517 34058 ft 452 kts 233°
2026-04-16 21:47 25.44609 47.28177 34064 ft 450 kts 232°
2026-04-16 21:47 25.40604 47.22876 34075 ft 451 kts 232°
2026-04-16 21:48 25.36601 47.17583 34081 ft 452 kts 232°
2026-04-16 21:48 25.32567 47.12255 34089 ft 451 kts 232°
2026-04-16 21:49 25.28522 47.06920 34094 ft 454 kts 232°
2026-04-16 21:49 25.24490 47.01607 34092 ft 452 kts 232°
2026-04-16 21:50 25.20451 46.96291 34094 ft 454 kts 232°
2026-04-16 21:50 25.16377 46.90934 34096 ft 454 kts 232°
2026-04-16 21:51 25.12310 46.85594 34092 ft 457 kts 232°
2026-04-16 21:51 25.08222 46.80232 34097 ft 456 kts 232°
2026-04-16 21:52 25.04141 46.74886 34100 ft 458 kts 232°
2026-04-16 21:52 25.00055 46.69538 34105 ft 456 kts 232°
2026-04-16 21:53 24.96258 46.63882 34113 ft 459 kts 239°
2026-04-16 21:53 24.92842 46.57996 34104 ft 456 kts 239°
2026-04-16 21:54 24.89397 46.52068 34092 ft 457 kts 239°
2026-04-16 21:54 24.85971 46.46187 34090 ft 456 kts 239°
2026-04-16 21:55 24.82560 46.40343 34077 ft 455 kts 239°
2026-04-16 21:55 24.79146 46.34500 34078 ft 456 kts 239°
2026-04-16 21:56 24.75695 46.28603 34092 ft 457 kts 239°
2026-04-16 21:56 24.72291 46.22794 34086 ft 454 kts 239°
2026-04-16 21:57 24.68866 46.16956 34081 ft 457 kts 239°
2026-04-16 21:57 24.65417 46.11087 34072 ft 456 kts 239°
2026-04-16 21:58 24.61982 46.05245 34074 ft 458 kts 239°
2026-04-16 21:58 24.58515 45.99358 34069 ft 456 kts 239°
2026-04-16 21:59 24.55065 45.93506 34069 ft 457 kts 239°
2026-04-16 21:59 24.51644 45.87712 34072 ft 454 kts 239°
2026-04-16 22:00 24.48198 45.81880 34069 ft 456 kts 240°
2026-04-16 22:00 24.44847 45.75974 34070 ft 453 kts 245°
2026-04-16 22:01 24.42081 45.69778 34069 ft 452 kts 246°
2026-04-16 22:01 24.39345 45.63602 34069 ft 453 kts 246°
2026-04-16 22:02 24.36609 45.57444 34065 ft 451 kts 246°
2026-04-16 22:02 24.33859 45.51266 34067 ft 452 kts 246°
2026-04-16 22:03 24.31092 45.45063 34064 ft 451 kts 246°
2026-04-16 22:03 24.28345 45.38913 34064 ft 451 kts 247°
2026-04-16 22:04 24.25589 45.32750 34073 ft 452 kts 246°
2026-04-16 22:04 24.22803 45.26531 34074 ft 453 kts 246°
2026-04-16 22:05 24.20040 45.20371 34077 ft 452 kts 246°
2026-04-16 22:05 24.17276 45.14218 34077 ft 451 kts 246°
2026-04-16 22:06 24.14514 45.08077 34078 ft 453 kts 246°
2026-04-16 22:06 24.10333 44.98807 34078 ft 451 kts 246°
2026-04-16 22:07 24.07563 44.92672 34074 ft 451 kts 246°
2026-04-16 22:07 24.04796 44.86553 34075 ft 451 kts 246°
2026-04-16 22:08 24.02013 44.80407 34076 ft 449 kts 246°
2026-04-16 22:08 23.99256 44.74325 34079 ft 448 kts 246°
2026-04-16 22:09 23.96494 44.68241 34078 ft 447 kts 246°
2026-04-16 22:09 23.93733 44.62167 34079 ft 447 kts 246°
2026-04-16 22:10 23.91274 44.55951 34076 ft 447 kts 251°
2026-04-16 22:10 23.89054 44.49613 34076 ft 445 kts 251°
2026-04-16 22:11 23.86845 44.43316 34069 ft 444 kts 251°
2026-04-16 22:11 23.84630 44.37021 34070 ft 446 kts 251°
2026-04-16 22:12 23.82418 44.30747 34076 ft 443 kts 251°
2026-04-16 22:12 23.80200 44.24469 34069 ft 443 kts 251°
2026-04-16 22:13 23.77992 44.18227 34069 ft 443 kts 251°
2026-04-16 22:13 23.75785 44.11997 34066 ft 441 kts 251°
2026-04-16 22:14 23.73567 44.05745 34063 ft 442 kts 251°
2026-04-16 22:14 23.71359 43.99532 34063 ft 439 kts 251°
2026-04-16 22:15 23.69142 43.93303 34069 ft 440 kts 252°
2026-04-16 22:15 23.66931 43.87096 34072 ft 441 kts 251°
2026-04-16 22:16 23.64722 43.80909 34068 ft 440 kts 251°
2026-04-16 22:16 23.62491 43.74668 34071 ft 442 kts 252°
2026-04-16 22:17 23.60283 43.68500 34073 ft 438 kts 252°
2026-04-16 22:17 23.58065 43.62311 34073 ft 443 kts 252°
2026-04-16 22:18 23.55829 43.56086 34076 ft 439 kts 252°
2026-04-16 22:18 23.53599 43.49880 34057 ft 440 kts 252°
2026-04-16 22:19 23.51375 43.43708 34055 ft 438 kts 252°
2026-04-16 22:19 23.49151 43.37540 34061 ft 440 kts 252°
2026-04-16 22:20 23.46911 43.31347 34077 ft 437 kts 252°
2026-04-16 22:20 23.44670 43.25151 34074 ft 440 kts 252°
2026-04-16 22:21 23.42434 43.18984 34088 ft 438 kts 252°
2026-04-16 22:21 23.40210 43.12857 34086 ft 435 kts 252°
2026-04-16 22:22 23.38003 43.06782 34078 ft 435 kts 252°
2026-04-16 22:22 23.35774 43.00659 34069 ft 435 kts 252°
2026-04-16 22:23 23.33546 42.94544 34070 ft 434 kts 252°
2026-04-16 22:23 23.30975 42.87500 34058 ft 434 kts 252°
2026-04-16 22:24 23.26877 42.76295 34057 ft 434 kts 252°
2026-04-16 22:24 23.24646 42.70206 34046 ft 433 kts 252°
2026-04-16 22:25 23.22412 42.64117 34043 ft 434 kts 252°
2026-04-16 22:25 23.20176 42.58034 34040 ft 433 kts 252°
2026-04-16 22:26 23.17953 42.51992 34042 ft 434 kts 252°
2026-04-16 22:26 23.15715 42.45921 34040 ft 432 kts 253°
2026-04-16 22:27 23.13491 42.39891 34037 ft 431 kts 252°
2026-04-16 22:27 23.11267 42.33829 34038 ft 430 kts 252°
2026-04-16 22:28 23.09131 42.27819 34043 ft 431 kts 253°
2026-04-16 22:28 23.06971 42.21753 34042 ft 430 kts 252°
2026-04-16 22:29 23.04805 42.15689 34040 ft 433 kts 253°
2026-04-16 22:29 23.02639 42.09638 34034 ft 429 kts 252°
2026-04-16 22:30 23.00471 42.03587 34034 ft 433 kts 252°
2026-04-16 22:30 22.98297 41.97533 34023 ft 428 kts 252°
2026-04-16 22:31 22.96132 41.91508 34032 ft 432 kts 252°
2026-04-16 22:31 22.93955 41.85464 34031 ft 429 kts 253°
2026-04-16 22:32 22.91782 41.79431 34028 ft 432 kts 252°
2026-04-16 22:32 22.89605 41.73403 34028 ft 429 kts 252°
2026-04-16 22:33 22.87414 41.67339 34021 ft 432 kts 253°
2026-04-16 22:33 22.85237 41.61327 34025 ft 429 kts 252°
2026-04-16 22:34 22.83062 41.55322 34024 ft 429 kts 253°
2026-04-16 22:34 22.80879 41.49305 34030 ft 431 kts 252°
2026-04-16 22:35 22.79228 41.44764 34026 ft 427 kts 253°
2026-04-16 22:35 22.77039 41.38744 34020 ft 429 kts 252°
2026-04-16 22:36 22.74850 41.32736 34037 ft 430 kts 252°
2026-04-16 22:36 22.72662 41.26743 34035 ft 427 kts 252°
2026-04-16 22:37 22.70465 41.20735 34037 ft 428 kts 252°
2026-04-16 22:37 22.68274 41.14750 34031 ft 427 kts 252°
2026-04-16 22:38 22.66083 41.08775 34030 ft 429 kts 252°
2026-04-16 22:38 22.63882 41.02786 34034 ft 428 kts 252°
2026-04-16 22:39 22.61685 40.96814 34028 ft 428 kts 252°
2026-04-16 22:39 22.59494 40.90867 34026 ft 427 kts 252°
2026-04-16 22:40 22.57290 40.84892 33793 ft 422 kts 252°
2026-04-16 22:40 22.56204 40.81951 32936 ft 425 kts 252°
2026-04-16 22:40 22.55102 40.78965 32187 ft 425 kts 252°
2026-04-16 22:41 22.54020 40.76038 31480 ft 425 kts 251°
2026-04-16 22:41 22.52919 40.73061 30787 ft 429 kts 252°
2026-04-16 22:41 22.51785 40.69990 30359 ft 442 kts 252°
2026-04-16 22:41 22.50644 40.66908 29908 ft 446 kts 252°
2026-04-16 22:42 22.49494 40.63808 29419 ft 444 kts 252°
2026-04-16 22:42 22.48354 40.60737 28929 ft 440 kts 252°
2026-04-16 22:42 22.47221 40.57687 28429 ft 435 kts 251°
2026-04-16 22:42 22.46105 40.54684 27939 ft 431 kts 251°
2026-04-16 22:43 22.44989 40.51684 27446 ft 427 kts 251°
2026-04-16 22:43 22.43901 40.48758 26959 ft 425 kts 251°
2026-04-16 22:43 22.42801 40.45800 26467 ft 424 kts 251°
2026-04-16 22:43 22.41697 40.42835 25965 ft 421 kts 251°
2026-04-16 22:44 22.40621 40.39948 25473 ft 418 kts 251°
2026-04-16 22:44 22.39527 40.37014 24976 ft 416 kts 251°
2026-04-16 22:44 22.38453 40.34134 24486 ft 413 kts 250°
2026-04-16 22:44 22.37392 40.31291 24002 ft 412 kts 250°
2026-04-16 22:45 22.36318 40.28417 23502 ft 410 kts 250°
2026-04-16 22:45 22.35256 40.25574 23006 ft 408 kts 250°
2026-04-16 22:45 22.34212 40.22784 22514 ft 404 kts 250°
2026-04-16 22:45 22.33158 40.19967 22006 ft 402 kts 250°
2026-04-16 22:46 22.32121 40.17196 21504 ft 401 kts 250°
2026-04-16 22:46 22.31069 40.14388 20996 ft 401 kts 250°
2026-04-16 22:46 22.30030 40.11617 20492 ft 399 kts 250°
2026-04-16 22:46 22.28999 40.08868 19987 ft 396 kts 249°
2026-04-16 22:47 22.27966 40.06116 19481 ft 394 kts 249°
2026-04-16 22:47 22.26948 40.03421 18981 ft 392 kts 248°
2026-04-16 22:47 22.25661 40.00881 18782 ft 381 kts 239°
2026-04-16 22:47 22.24248 39.98537 18750 ft 365 kts 239°
2026-04-16 22:48 22.22865 39.96260 18434 ft 350 kts 238°
2026-04-16 22:48 22.21577 39.94144 18300 ft 333 kts 238°
2026-04-16 22:48 22.20336 39.92109 18156 ft 318 kts 238°
2026-04-16 22:48 22.18871 39.90375 17997 ft 307 kts 217°
2026-04-16 22:49 22.16961 39.89368 17888 ft 316 kts 197°
2026-04-16 22:49 22.14710 39.89152 17608 ft 332 kts 176°
2026-04-16 22:49 22.12462 39.89810 17163 ft 338 kts 161°
2026-04-16 22:49 22.10324 39.90853 16726 ft 339 kts 157°
2026-04-16 22:50 22.08174 39.91863 16278 ft 336 kts 166°
2026-04-16 22:50 22.05904 39.92507 15862 ft 333 kts 170°
2026-04-16 22:50 22.03641 39.93059 15441 ft 333 kts 171°
2026-04-16 22:50 22.01408 39.93594 15031 ft 332 kts 171°
2026-04-16 22:51 21.99146 39.94117 14606 ft 330 kts 175°
2026-04-16 22:51 21.96877 39.94250 14260 ft 324 kts 183°
2026-04-16 22:51 21.94625 39.94197 13916 ft 319 kts 187°
2026-04-16 22:51 21.92521 39.93652 13541 ft 309 kts 209°
2026-04-16 22:52 21.90835 39.92261 13182 ft 299 kts 232°
2026-04-16 22:52 21.89838 39.90366 13012 ft 295 kts 254°
2026-04-16 22:52 21.89518 39.88186 12826 ft 296 kts 268°
2026-04-16 22:52 21.89578 39.85970 12649 ft 295 kts 274°
2026-04-16 22:53 21.89791 39.83796 12480 ft 295 kts 276°
2026-04-16 22:53 21.90062 39.81614 12322 ft 294 kts 277°
2026-04-16 22:53 21.90349 39.79442 12167 ft 294 kts 277°
2026-04-16 22:53 21.90641 39.77250 12010 ft 293 kts 277°
2026-04-16 22:54 21.90930 39.75094 11853 ft 293 kts 277°
2026-04-16 22:54 21.91219 39.72928 11689 ft 292 kts 277°
2026-04-16 22:54 21.91508 39.70766 11543 ft 293 kts 277°
2026-04-16 22:54 21.91798 39.68584 11382 ft 292 kts 277°
2026-04-16 22:55 21.92084 39.66440 11232 ft 291 kts 277°
2026-04-16 22:55 21.92372 39.64275 11080 ft 291 kts 277°
2026-04-16 22:55 21.92657 39.62127 10913 ft 290 kts 276°
2026-04-16 22:55 21.92943 39.59970 10773 ft 291 kts 277°
2026-04-16 22:56 21.93229 39.57818 10620 ft 291 kts 277°
2026-04-16 22:56 21.93512 39.55677 10460 ft 290 kts 276°
2026-04-16 22:56 21.93795 39.53545 10289 ft 288 kts 276°
2026-04-16 22:56 21.94076 39.51413 10155 ft 287 kts 276°
2026-04-16 22:57 21.94227 39.49302 9968 ft 278 kts 265°
2026-04-16 22:57 21.94053 39.47242 9577 ft 279 kts 262°
2026-04-16 22:57 21.93811 39.45152 9053 ft 284 kts 261°
2026-04-16 22:57 21.93564 39.43026 8548 ft 287 kts 261°
2026-04-16 22:58 21.93323 39.40905 8065 ft 289 kts 261°
2026-04-16 22:58 21.93079 39.38753 7593 ft 289 kts 260°
2026-04-16 22:58 21.92836 39.36607 7118 ft 288 kts 259°
2026-04-16 22:58 21.92598 39.34501 6624 ft 285 kts 259°
2026-04-16 22:59 21.92361 39.32402 6182 ft 281 kts 258°
2026-04-16 22:59 21.92125 39.30321 5716 ft 277 kts 258°
2026-04-16 22:59 21.91894 39.28291 5264 ft 274 kts 258°
2026-04-16 22:59 21.91664 39.26276 4815 ft 268 kts 258°
2026-04-16 23:00 21.91442 39.24316 4423 ft 260 kts 258°
2026-04-16 23:00 21.91224 39.22403 4051 ft 253 kts 258°
2026-04-16 23:00 21.91014 39.20563 3680 ft 247 kts 258°
2026-04-16 23:00 21.90799 39.18747 3312 ft 241 kts 255°
2026-04-16 23:01 21.90345 39.17050 2941 ft 233 kts 245°
2026-04-16 23:01 21.89784 39.15442 2643 ft 225 kts 244°
2026-04-16 23:01 21.89240 39.13893 2455 ft 216 kts 244°
2026-04-16 23:01 21.88721 39.12416 2290 ft 206 kts 241°
2026-04-16 23:02 21.87924 39.11239 2118 ft 190 kts 212°
2026-04-16 23:02 21.86747 39.10671 1964 ft 183 kts 187°
2026-04-16 23:02 21.85509 39.10754 1806 ft 174 kts 165°
2026-04-16 23:02 21.84343 39.11100 1714 ft 172 kts 162°
2026-04-16 23:03 21.83214 39.11522 1691 ft 167 kts 157°
2026-04-16 23:03 21.82165 39.11978 1686 ft 162 kts 159°
2026-04-16 23:03 21.81121 39.12384 1684 ft 154 kts 159°
2026-04-16 23:03 21.80127 39.12768 1682 ft 149 kts 159°
2026-04-16 23:04 21.79160 39.13147 1681 ft 147 kts 159°
2026-04-16 23:04 21.78197 39.13538 1658 ft 146 kts 159°
2026-04-16 23:04 21.77242 39.13909 1528 ft 146 kts 159°
2026-04-16 23:04 21.76274 39.14283 1323 ft 147 kts 161°
2026-04-16 23:05 21.75294 39.14639 1131 ft 149 kts 160°
2026-04-16 23:05 21.74324 39.15022 981 ft 151 kts 160°
2026-04-16 23:05 21.73322 39.15421 759 ft 152 kts 160°
2026-04-16 23:05 21.72328 39.15820 565 ft 155 kts 160°
2026-04-16 23:06 21.71297 39.16220 344 ft 158 kts 161°
2026-04-16 23:06 21.70256 39.16630 149 ft 160 kts 161°
2026-04-16 23:06 21.69225 39.17039 64 ft 145 kts 161°
2026-04-16 23:06 21.68377 39.17368 63 ft 114 kts 160°
2026-04-16 23:07 21.67755 39.17614 63 ft 72 kts 159°
2026-04-16 23:07 21.67413 39.17749 63 ft 40 kts 160°
2026-04-16 23:07 21.67210 39.17829 63 ft 25 kts 159°